Powrót do katalogu

STARLINK-31692

AktywnyŁącznośćVLEO
NORAD 59577·PAYLOAD·🇺🇸 United States

Wystrzelony Apr 23, 2024 z Cape Canaveral Space Force Station

Loading…

Następne Przeloty (najbliższe 24 godziny)

TLE

ŚwieżeSource: CelesTrak SupGP

Epoka: Sep 15, 2026, 02:42 UTC

1 59577C 24076P   26258.11298611  .00012936  00000+0  27366-3 0  2589
2 59577  42.9981   9.6871 0017331 343.6902 331.3863 15.44104423    17

Śledź STARLINK-31692 w czasie rzeczywistym z AllMySat

Download on the App Store